Wind_Speed
8 7 7 5 5 4 5 5 6 6 6 6 5 5 4 3 2 1 0 2 4 6 6 7 8 9 11 13 15 17 19 22 24 26 27 28 29 30 32 34 36 37 39 41
8 7 5 5 5 5 5 6 6 7 6 5 5 4 3 2 0 1 3 4 5 6 6 7 8 9 11 12 15 16 19 21 23 25 26 26 28 29 32 34 36 37 38 39
7 6 6 6 5 4 5 6 6 7 6 5 4 3 2 1 2 3 4 4 5 5 6 7 8 9 11 14 16 18 20 21 21 23 23 25 26 29 31 34 36 37 37 38
7 6 6 6 5 5 6 6 6 6 6 5 4 2 1 1 3 4 5 5 6 7 8 9 10 11 13 15 17 19 21 21 22 23 24 25 28 29 31 33 35 35 36 37
7 6 6 6 5 5 5 5 5 5 4 3 2 1 1 2 3 5 6 7 8 9 10 11 12 14 15 17 19 21 21 22 23 24 26 27 29 29 30 31 32 34 35 36
8 7 7 6 6 5 5 5 4 4 3 2 1 1 2 3 4 5 6 8 10 10 11 13 14 16 18 20 21 22 22 23 25 26 27 28 29 29 30 31 32 32 34 34
10 10 9 8 7 5 5 5 5 4 3 3 3 3 3 4 5 6 8 10 11 12 14 15 17 18 20 21 22 23 24 25 27 28 28 29 28 29 30 31 31 31 32 33
12 12 11 9 8 7 6 6 6 6 5 4 4 5 5 6 7 9 11 12 13 15 16 18 19 21 22 23 24 25 26 27 28 29 29 29 29 29 30 31 31 31 31 32
14 13 13 12 10 9 8 8 7 7 6 6 6 7 7 8 9 11 12 14 16 17 18 20 22 23 25 25 25 26 27 29 29 30 30 30 30 31 31 32 32 31 31 31
17 16 16 14 13 12 11 10 10 9 8 8 8 9 10 11 12 13 15 16 17 19 20 22 23 25 26 27 27 27 28 29 30 30 30 31 32 32 32 33 32 31 31 31
19 18 18 17 16 14 14 13 13 12 12 11 11 12 13 14 15 16 17 18 20 21 22 23 25 27 28 28 28 29 30 30 30 30 31 31 31 32 33 33 32 32 32 31
22 21 20 19 18 17 16 16 15 15 15 14 14 15 16 16 17 19 20 21 22 23 25 26 28 29 30 30 30 31 31 31 31 32 32 32 33 33 34 34 34 34 33 32
25 24 23 22 21 20 19 18 18 18 18 18 18 18 18 19 20 21 22 23 25 26 28 29 30 31 32 31 32 32 32 32 33 33 33 34 34 34 34 34 34 33 33 33
27 27 25 24 23 23 22 22 21 21 21 21 21 21 22 22 23 24 25 25 27 29 30 31 32 33 33 33 33 33 34 34 34 34 34 34 34 34 35 35 34 34 33 33
29 28 28 27 25 25 25 24 24 24 24 24 24 24 25 25 26 26 27 28 29 31 32 33 34 35 35 35 35 35 35 36 36 35 35 35 35 35 35 35 34 33 32 31
30 30 30 29 29 28 28 27 27 26 27 27 27 27 28 28 28 29 30 31 32 33 34 35 36 36 36 36 36 36 37 37 37 36 36 36 36 36 36 35 34 33 31 31
30 30 30 30 30 31 31 30 30 29 29 29 29 30 30 30 31 32 32 33 35 36 37 37 37 37 38 37 37 37 38 38 38 37 37 37 37 37 37 36 34 33 32 31
30 31 31 31 31 31 32 32 32 32 32 32 32 32 32 33 33 34 35 36 36 37 38 38 38 38 39 38 38 38 38 39 39 39 39 39 38 38 37 35 34 33 32 32
33 33 33 32 32 32 32 32 33 33 33 33 34 34 35 35 35 36 37 37 38 39 39 39 40 40 40 40 40 40 39 39 40 40 40 40 39 39 37 36 35 34 33 33
34 35 35 34 34 34 34 34 34 34 34 34 35 35 35 36 36 37 38 38 39 40 41 41 41 41 41 41 41 41 40 40 41 41 41 40 40 39 38 36 35 34 34 33
36 36 36 36 36 36 36 36 36 36 36 36 37 37 37 37 37 38 39 39 40 41 42 42 43 43 43 43 42 42 41 41 41 42 41 41 40 39 38 37 36 35 34 33
37 37 37 38 38 37 37 37 38 38 38 38 38 39 39 39 39 40 41 41 42 42 43 43 44 44 43 43 43 43 42 42 42 42 41 40 39 38 38 37 36 35 35 34
37 37 38 38 38 39 38 38 39 39 40 40 40 40 40 40 41 41 42 42 43 43 44 44 44 44 44 44 43 43 43 42 42 42 41 39 39 38 37 36 35 35 34 33
37 38 39 39 39 39 39 40 40 40 40 41 41 41 42 42 42 43 43 44 44 44 45 45 45 45 45 44 43 43 43 43 42 41 40 39 38 37 36 35 35 34 33 32
37 37 38 38 39 40 40 40 40 40 40 41 41 42 42 43 44 44 44 45 45 45 45 45 45 46 45 44 43 43 43 42 42 41 39 38 37 36 35 35 34 33 32 31
37 37 37 38 38 39 39 40 40 40 41 41 42 42 43 44 44 45 45 45 45 45 46 46 46 46 45 44 43 42 41 41 40 39 38 36 35 35 34 34 33 32 31 30
36 36 37 37 37 38 39 39 40 40 41 41 42 42 43 44 45 45 45 45 45 45 45 45 45 44 43 42 41 41 40 39 38 38 36 35 35 34 33 32 31 30 29 29
Wind_Direction
166 172 176 181 180 176 173 169 166 158 153 151 149 143 145 154 151 118 340 315 321 327 321 311 309 300 293 290 290 289 286 284 281 277 276 278 279 276 275 276 277 278 278 277
169 172 177 178 182 183 184 182 174 167 163 152 145 141 136 120 80 347 351 343 334 331 328 320 316 315 309 304 300 299 297 294 289 283 280 281 283 280 280 280 280 282 282 281
181 182 176 170 165 167 171 169 165 167 170 167 155 140 125 85 19 8 7 10 2 348 339 336 326 326 322 317 313 309 305 300 296 291 286 284 284 284 285 284 283 283 284 284
193 193 189 175 166 156 152 151 153 159 162 157 146 126 72 21 4 6 11 9 359 353 346 338 334 333 330 326 322 319 315 308 302 296 290 289 288 288 288 286 285 286 286 286
205 204 189 181 174 169 165 157 151 156 157 153 153 170 357 352 348 350 351 352 348 345 340 337 333 329 325 323 322 321 319 316 311 305 299 296 294 291 292 291 289 288 288 287
213 212 202 192 190 188 183 182 174 171 179 194 231 285 306 313 319 325 331 336 338 338 336 331 328 325 323 320 320 320 320 319 316 312 307 302 299 295 294 293 291 290 290 290
218 217 211 207 209 208 206 202 206 210 221 247 271 291 296 300 307 312 318 322 326 328 329 327 325 322 321 319 318 317 317 317 316 314 311 308 303 300 298 296 294 294 294 293
222 224 225 221 224 226 226 222 224 230 241 257 273 288 297 302 306 308 312 315 317 320 322 323 322 322 320 318 316 314 314 314 314 314 313 309 305 303 300 298 297 298 299 298
230 231 232 232 231 232 232 233 234 239 248 259 272 286 296 301 304 308 311 313 314 316 318 320 321 321 320 318 315 314 312 311 311 312 310 307 305 303 301 299 297 296 297 298
234 235 236 235 235 237 240 242 245 250 256 264 273 282 291 296 299 302 306 311 314 316 317 317 318 318 318 317 315 314 314 313 312 311 309 307 306 304 302 301 300 297 296 297
237 239 239 240 240 242 245 246 250 254 258 265 274 281 289 294 297 300 302 306 310 313 315 316 317 317 317 316 314 314 313 313 313 311 308 307 306 305 303 303 301 299 297 296
237 238 239 240 242 244 247 250 252 256 259 265 272 279 286 291 295 298 301 303 306 309 311 312 313 315 315 313 313 313 312 312 311 310 308 307 306 306 304 302 301 299 297 295
239 240 242 243 245 248 251 253 256 259 262 266 271 277 283 288 293 296 300 302 304 306 308 310 311 312 313 312 311 311 310 310 310 309 307 306 305 305 305 303 302 300 297 295
242 243 244 245 248 251 254 255 258 261 263 266 270 275 280 285 289 293 296 299 302 304 306 307 309 310 310 309 308 308 308 307 307 307 306 305 304 304 304 303 302 300 298 295
245 245 245 246 248 252 255 256 259 261 263 266 270 274 280 284 287 290 293 296 299 301 304 305 307 307 307 307 306 306 306 305 305 305 304 303 303 303 303 303 302 300 297 294
247 247 248 248 250 252 255 257 260 262 264 266 270 274 278 282 286 289 292 294 297 300 303 304 305 307 306 305 304 304 305 304 304 303 302 301 301 301 301 301 301 300 297 295
248 248 249 251 253 254 256 259 261 264 266 268 271 274 278 282 285 288 291 293 296 299 302 303 304 305 305 304 304 303 304 304 303 303 302 301 300 299 299 298 298 298 295 293
248 248 249 252 255 257 258 260 263 265 268 269 271 275 278 282 285 288 290 292 295 298 300 301 303 303 304 304 303 303 303 304 304 303 302 301 300 300 299 298 298 296 295 293
250 251 251 253 256 258 260 263 265 266 268 270 272 274 277 281 284 287 290 293 295 297 298 299 301 302 302 303 302 301 303 304 304 304 303 301 299 299 298 298 297 295 293 291
252 252 254 256 258 260 262 264 266 267 269 272 274 276 278 281 284 287 289 292 294 296 297 298 299 300 300 300 301 301 301 303 304 304 303 301 300 298 297 296 295 294 292 291
254 254 255 257 259 261 262 264 266 268 270 271 274 276 279 282 285 288 290 292 294 295 296 297 298 298 298 298 299 299 300 302 303 304 303 301 300 299 298 295 293 293 292 290
256 257 257 258 260 261 263 264 266 268 269 272 274 276 279 281 284 287 290 291 293 294 296 297 298 298 298 298 298 299 299 300 302 303 302 301 300 299 298 296 293 291 290 288
258 259 259 260 260 261 263 265 267 268 269 271 274 276 279 281 284 287 289 291 293 294 295 297 298 298 297 298 298 299 299 299 301 302 301 300 299 298 297 296 293 291 289 287
260 260 261 260 260 262 263 265 267 269 271 273 274 276 279 281 283 286 288 290 292 294 295 296 297 297 297 297 298 298 299 299 300 300 300 299 298 297 296 295 294 291 289 287
260 260 261 261 261 262 264 266 268 270 272 273 275 277 279 281 283 285 288 291 292 293 295 296 297 297 297 297 297 298 298 298 299 299 298 297 297 296 295 294 293 291 288 285
260 260 261 262 263 264 265 267 269 271 273 274 275 278 279 281 283 286 289 291 292 294 295 296 297 297 297 296 297 297 297 298 299 299 298 296 295 295 294 294 293 290 287 284
261 262 262 263 264 265 266 267 269 271 273 274 276 278 280 282 284 286 289 290 292 293 295 296 298 298 297 297 297 297 297 298 299 299 298 296 295 294 293 292 291 289 287 284
Height
5650 5651 5651 5652 5652 5652 5652 5652 5652 5653 5653 5653 5653 5654 5654 5654 5654 5654 5654 5653 5652 5651 5650 5648 5647 5646 5646 5645 5645 5643 5642 5641 5640 5640 5639 5639 5639 5638 5637 5637 5636 5635 5633 5630
5650 5650 5651 5651 5652 5652 5652 5651 5652 5652 5653 5653 5653 5653 5653 5653 5653 5652 5652 5651 5650 5649 5648 5646 5644 5643 5641 5640 5639 5637 5636 5634 5632 5631 5631 5630 5629 5628 5627 5626 5625 5623 5620 5618
5650 5651 5651 5652 5652 5651 5651 5651 5651 5651 5653 5652 5652 5652 5652 5652 5651 5651 5650 5649 5648 5647 5645 5644 5642 5640 5638 5636 5634 5632 5630 5627 5625 5624 5622 5621 5620 5619 5617 5615 5613 5610 5607 5605
5650 5651 5651 5654 5651 5651 5651 5651 5651 5651 5651 5651 5652 5652 5651 5651 5650 5650 5649 5647 5646 5645 5643 5641 5639 5637 5635 5633 5630 5628 5625 5622 5619 5616 5614 5613 5611 5609 5607 5604 5601 5599 5597 5594
5649 5650 5650 5652 5651 5650 5650 5651 5650 5650 5650 5650 5650 5650 5650 5650 5649 5648 5647 5646 5644 5643 5641 5639 5637 5635 5632 5629 5626 5623 5619 5616 5613 5610 5607 5605 5602 5600 5597 5594 5591 5589 5586 5583
5648 5648 5649 5652 5650 5649 5650 5650 5650 5649 5649 5649 5649 5650 5650 5648 5647 5646 5645 5644 5642 5640 5638 5636 5634 5631 5628 5625 5621 5617 5614 5610 5607 5603 5600 5596 5593 5590 5587 5584 5582 5579 5576 5572
5646 5646 5648 5649 5648 5649 5650 5650 5649 5648 5648 5648 5648 5648 5647 5646 5645 5644 5643 5641 5640 5638 5635 5633 5630 5627 5623 5620 5616 5612 5609 5605 5601 5597 5593 5588 5585 5582 5579 5576 5573 5569 5566 5563
5644 5645 5648 5646 5646 5647 5647 5646 5646 5646 5646 5646 5646 5645 5644 5643 5642 5641 5640 5638 5636 5634 5632 5629 5625 5622 5618 5614 5610 5606 5603 5599 5594 5590 5585 5581 5578 5574 5571 5567 5564 5560 5557 5553
5642 5644 5643 5643 5643 5643 5643 5643 5643 5643 5643 5643 5643 5642 5641 5640 5639 5638 5636 5634 5632 5630 5627 5624 5620 5616 5613 5608 5604 5600 5596 5592 5588 5583 5579 5575 5571 5567 5563 5559 5555 5552 5549 5546
5637 5638 5638 5639 5639 5640 5640 5640 5640 5640 5640 5640 5639 5638 5637 5636 5635 5633 5632 5630 5627 5625 5622 5618 5615 5611 5607 5602 5598 5594 5590 5586 5581 5576 5572 5568 5563 5559 5555 5551 5547 5544 5541 5538
5632 5633 5634 5634 5635 5635 5635 5636 5636 5636 5636 5635 5635 5634 5633 5631 5630 5628 5626 5624 5622 5619 5616 5612 5609 5605 5601 5596 5592 5588 5583 5579 5574 5569 5565 5561 5556 5552 5548 5544 5540 5537 5534 5530
5626 5627 5628 5629 5629 5630 5630 5630 5631 5631 5630 5630 5629 5629 5627 5626 5624 5623 5621 5618 5616 5613 5610 5606 5602 5598 5594 5589 5585 5581 5576 5572 5567 5563 5558 5553 5549 5544 5540 5536 5532 5528 5525 5521
5619 5620 5621 5623 5623 5624 5624 5624 5624 5625 5624 5624 5624 5623 5621 5620 5618 5616 5614 5612 5609 5606 5603 5599 5595 5591 5586 5582 5578 5573 5569 5564 5559 5555 5550 5546 5541 5537 5532 5528 5524 5520 5516 5512
5611 5613 5614 5616 5616 5617 5617 5618 5618 5618 5618 5617 5617 5616 5615 5613 5611 5609 5607 5604 5602 5599 5595 5591 5587 5583 5578 5574 5570 5565 5561 5556 5551 5547 5542 5538 5533 5529 5525 5520 5516 5511 5507 5504
5604 5605 5607 5608 5609 5610 5610 5610 5611 5611 5610 5610 5609 5608 5607 5606 5604 5602 5599 5597 5594 5591 5587 5583 5579 5575 5570 5565 5561 5557 5552 5547 5543 5538 5534 5529 5525 5521 5516 5511 5507 5503 5499 5496
5596 5597 5598 5600 5601 5602 5602 5602 5603 5603 5602 5602 5601 5600 5599 5597 5596 5593 5591 5588 5585 5582 5578 5574 5570 5565 5561 5556 5552 5547 5543 5538 5533 5529 5524 5520 5516 5512 5507 5503 5498 5494 5490 5487
5587 5588 5590 5591 5592 5592 5593 5594 5594 5594 5594 5593 5592 5591 5590 5588 5586 5584 5582 5579 5576 5573 5569 5565 5560 5556 5551 5547 5542 5538 5533 5528 5524 5519 5515 5510 5506 5502 5498 5493 5489 5485 5482 5478
5577 5579 5580 5582 5582 5583 5584 5584 5584 5584 5584 5583 5582 5581 5580 5578 5577 5574 5572 5569 5566 5563 5559 5554 5550 5545 5541 5536 5532 5527 5523 5518 5514 5509 5505 5500 5496 5492 5487 5483 5480 5476 5473 5469
5567 5569 5570 5571 5572 5573 5574 5574 5574 5574 5574 5573 5572 5571 5570 5568 5566 5564 5561 5558 5555 5552 5548 5543 5539 5534 5530 5525 5521 5516 5512 5508 5503 5498 5494 5489 5485 5481 5477 5473 5469 5466 5463 5460
5556 5558 5559 5561 5562 5563 5564 5564 5564 5564 5563 5562 5562 5560 5559 5557 5555 5552 5550 5547 5544 5540 5536 5532 5528 5523 5519 5514 5510 5505 5501 5497 5492 5487 5482 5478 5473 5469 5466 5462 5459 5456 5453 5450
5545 5547 5548 5549 5550 5551 5552 5552 5552 5552 5552 5551 5550 5549 5548 5546 5543 5541 5538 5535 5532 5528 5524 5520 5516 5511 5507 5502 5498 5494 5490 5485 5481 5476 5471 5466 5462 5458 5454 5451 5447 5445 5442 5439
5534 5535 5536 5537 5538 5539 5539 5540 5540 5540 5540 5539 5538 5537 5536 5534 5531 5529 5526 5523 5520 5516 5512 5508 5504 5499 5494 5490 5486 5482 5478 5473 5469 5464 5459 5455 5451 5447 5443 5439 5436 5433 5431 5429
5521 5523 5524 5525 5526 5526 5527 5527 5527 5527 5527 5526 5526 5524 5523 5521 5519 5516 5514 5511 5507 5503 5499 5495 5491 5487 5482 5478 5474 5470 5465 5461 5457 5452 5447 5443 5439 5435 5432 5428 5425 5422 5420 5418
5509 5510 5511 5512 5513 5513 5514 5514 5514 5514 5514 5513 5512 5511 5510 5508 5506 5503 5500 5497 5494 5490 5486 5482 5478 5474 5470 5466 5461 5457 5453 5449 5444 5440 5435 5431 5427 5424 5421 5417 5414 5412 5409 5407
5496 5497 5498 5499 5500 5500 5501 5501 5501 5501 5500 5500 5499 5498 5496 5494 5492 5490 5487 5484 5480 5477 5473 5469 5465 5461 5457 5453 5449 5445 5440 5436 5432 5428 5423 5420 5416 5413 5410 5407 5404 5401 5399 5397
5484 5485 5486 5486 5487 5487 5488 5488 5488 5488 5487 5486 5485 5484 5482 5480 5478 5476 5473 5470 5467 5463 5460 5456 5452 5448 5444 5440 5436 5432 5428 5424 5420 5416 5412 5408 5405 5402 5399 5396 5393 5391 5388 5387
5472 5473 5474 5474 5474 5474 5474 5475 5475 5474 5473 5473 5471 5470 5468 5467 5465 5462 5459 5456 5453 5450 5446 5443 5438 5434 5430 5427 5423 5420 5416 5412 5408 5404 5401 5397 5394 5391 5388 5385 5383 5381 5379 5377